Showing default

NAVSTAR 72 (USA 258), 40294

Orbit data source: Space-Track

NAVSTAR 72 (USA 258), 40294 is a payload satellite owned by USAF SMC (US) in MEO that was launched on Wed, 29 Oct 2014 UTC via an ATLAS V 401 launch vehicle from the Air Force Eastern Test Range (AFETR). Payload-class satellites include a variety of spacecraft equipped with specific instruments for various scientific and technological missions. These include communications satellites like Starlink; space stations such as the ISS; scientific satellites like the Hubble; Earth observation satellites from companies like Planet Labs, Umbra, and HawkEye 360; GPS; miniature CubeSats for education and research; and military/defense satellites.

Loading next visibility...
Identifier
40294, 2014-068A
Orbit
MEO
Country
Flag of USUS
Related business
Manufacturer
Boeing/ES
Mission
Operational Defense Navigation
Bus & Motor
GPS IIF, AOCS
Mass
1,630 kg wet, ~1,500 kg dry
Launch date (UTC)
2014-10-29 (12 years ago)
Launch vehicle
ATLAS V 401
Launch site
Air Force Eastern Test Range (AFETR)
Object type
Payload
Rocket body
Debris
Shape & HBR
Box + 2 Pan, 9.0 m
Radar Cross Section
13.960 m², Large (>1 m²)

Expand to show TLE details & history
Last TLE update: 3 days ago

TLE from 3 days ago
0 NAVSTAR 72 (USA 258)
1 40294U 14068A   26170.91475241 -.00000091  00000-0  00000-0 0  9998
2 40294  56.9895  30.8495 0067113  70.6969 290.0787  2.00576333 85260
Epoch: 2026-06-19T21:57Z
TLE epoch observation values (Epoch: 2026-06-19T21:57:14.608Z)
Latitude
0.00004°
Longitude
153.41601°
Altitude
20,121.207 km
Speed
3.883 km/s
True Right ascension
02h 03m 27s
True Declination
0° 00' 00"
Sunlit
Object was in daylight at epoch
Visualization orbit readout
Latitude
Unknown
Longitude
Unknown
Altitude
Unknown
Speed
Unknown
Apparent Right ascension
Unknown
Apparent Declination
Unknown
Sunlit
N/A
Visualization observer readout
Local Sidereal Time
21:36:00
Azimuth
Unknown
Elevation
Unknown
Doppler factor
Unknown
Orbital elements
Apogee altitude
20,359.259 km
Perigee altitude
20,002.766 km
Semi-major axis
26,559.149 km
Eccentricity
0.00671
Inclination
56.9895°
RAAN
30.8495°
Arg. of periapsis
70.6969°
True anomaly
289.35432°
Mean anomaly
290.0787°
Eccentric anomaly
289.71671°
Mean motion
0.50144 °/min
Orbital period
717.93 mins
BSTAR
0
Loading maneuver chart data...
Computing Atmospheric mass density...
Loading historical data...
Loading historical data...
Loading historical data...
Loading historical data...
Loading historical data...
Loading historical data...
Loading historical data...
Other satellites on launch #68 in the year 2014 (2014-10-29 UTC)

Documentation

Showing up to 5 results
|